Weather History for Orangeburg, SC

Change the Weather History Date:

Thursday, November 27, 2014

  Actual Average Record
Temperature  
Mean Temperature 48 °F 53 °F  
Max Temperature 56 °F 65 °F 81 °F (2001)
Min Temperature 39 °F 41 °F 26 °F (1970)
Degree Days  
Heating Degree Days 17 12  
Month to date heating degree days 350 239  
Since 1 July heating degree days 414 329  
Cooling Degree Days 0 0  
Month to date cooling degree days 7 12  
Year to date cooling degree days 2250 2099  
Moisture  
Dew Point 31 °F    
Average Humidity 56    
Maximum Humidity 85    
Minimum Humidity 35    
Precipitation  
Precipitation 0.00 in 0.10 in 1.70 in (1993)
Month to date precipitation 3.23 2.61  
Year to date precipitation 43.81 43.10  
Sea Level Pressure  
Sea Level Pressure 30.16 in    
Wind  
Wind Speed 10 mph (West)    
Max Wind Speed 23 mph    
Max Gust Speed 29 mph    
Visibility 10 miles    
Events      
T = Trace of Precipitation, MM = Missing Value Source: NWS Daily Summary

Daily Weather History Graph

Daily Weather History Graph

Search for Another Location

Airport:

Trip Planner

Search our weather history database for the weather conditions in past years. The results will help you decide how hot, cold, wet, or windy it might be!

Date:

Astronomy

Nov. 27, 2014 Rise Set
Actual Time 7:05 AM EST 5:16 PM EST
Civil Twilight 6:38 AM EST 5:43 PM EST
Nautical Twilight 6:08 AM EST 6:13 PM EST
Astronomical Twilight 5:38 AM EST 6:43 PM EST
Moon 11:26 AM EST (11/27) 10:46 PM EST (11/27)
Length of Visible Light 11h 04m
Length of Day
10h 10m
Waxing Crescent, 31% of the Moon is Illuminated
Nov 27
Waxing Crescent
Nov 29
First Quarter
Dec 6
Full
Dec 14
Last Quarter
Dec 21
New

Hourly Weather History & Observations

Time (EST) Temp. Windchill Dew Point Humidity Pressure Visibility Wind Dir Wind Speed Gust Speed Precip Events Conditions
12:53 AM 39.9 °F 36.7 °F 35.1 °F 83% 30.10 in 10.0 mi SSW 4.6 mph - N/A   Clear
1:53 AM 42.1 °F 38.4 °F 36.0 °F 79% 30.09 in 10.0 mi SW 5.8 mph - N/A   Overcast
2:53 AM 41.0 °F 36.4 °F 35.1 °F 79% 30.09 in 10.0 mi SSW 6.9 mph - N/A   Mostly Cloudy
3:53 AM 41.0 °F 35.8 °F 34.0 °F 76% 30.06 in 10.0 mi SSW 8.1 mph - N/A   Scattered Clouds
4:53 AM 39.9 °F 33.9 °F 34.0 °F 79% 30.05 in 10.0 mi SW 9.2 mph - N/A   Clear
5:53 AM 42.1 °F 36.6 °F 34.0 °F 73% 30.06 in 10.0 mi SW 9.2 mph - N/A   Clear
6:53 AM 44.1 °F 37.4 °F 33.1 °F 65% 30.09 in 10.0 mi West 13.8 mph - N/A   Clear
7:53 AM 44.1 °F 38.6 °F 33.1 °F 65% 30.11 in 10.0 mi West 10.4 mph - N/A   Clear
8:53 AM 46.9 °F - 30.9 °F 54% 30.12 in 10.0 mi West 13.8 mph - N/A   Clear
9:53 AM 50.0 °F - 30.0 °F 46% 30.14 in 10.0 mi WNW 12.7 mph 23.0 mph N/A   Clear
10:53 AM 52.0 °F - 28.9 °F 41% 30.14 in 10.0 mi NW 13.8 mph 25.3 mph N/A   Clear
11:53 AM 53.1 °F - 28.0 °F 38% 30.14 in 10.0 mi NW 12.7 mph 28.8 mph N/A   Clear
12:53 PM 54.0 °F - 28.0 °F 37% 30.13 in 10.0 mi WNW 16.1 mph 23.0 mph N/A   Scattered Clouds
1:53 PM 55.0 °F - 28.9 °F 37% 30.12 in 10.0 mi NNW 15.0 mph 21.9 mph N/A   Scattered Clouds
2:53 PM 54.0 °F - 28.0 °F 37% 30.14 in 10.0 mi WNW 11.5 mph 26.5 mph N/A   Mostly Cloudy
3:53 PM 53.1 °F - 27.0 °F 37% 30.16 in 10.0 mi WNW 12.7 mph 20.7 mph N/A   Clear
4:53 PM 52.0 °F - 27.0 °F 38% 30.18 in 10.0 mi NW 11.5 mph - N/A   Clear
5:53 PM 48.9 °F - 28.9 °F 46% 30.21 in 10.0 mi West 6.9 mph - N/A   Clear
6:53 PM 46.9 °F - 30.0 °F 52% 30.23 in 10.0 mi WNW 5.8 mph - N/A   Clear
7:53 PM 46.0 °F 41.4 °F 28.9 °F 51% 30.24 in 10.0 mi WNW 9.2 mph - N/A   Clear
8:53 PM 45.0 °F 40.6 °F 30.0 °F 56% 30.27 in 10.0 mi NW 8.1 mph - N/A   Clear
9:53 PM 42.1 °F 39.2 °F 30.0 °F 62% 30.30 in 10.0 mi NW 4.6 mph - N/A   Clear
10:53 PM 41.0 °F 37.1 °F 28.0 °F 60% 30.31 in 10.0 mi NNW 5.8 mph - N/A   Clear
11:53 PM 39.0 °F - 28.0 °F 65% 30.31 in 10.0 mi Calm Calm - N/A   Clear